TAM3758 SBLO-SBSP

Flight info

Callsign TAM3758
Flight time 0h 52m
Altitude 35000
Route AKTIT DCT IMTBI DCT UTLOT
Aircraft A320/M-SDE3FGHIRWY/LB1

Departure

Time 2026-05-08 16:24
Airport Governor José Richa Airport (SBLO)

Arrival

Time 2026-05-08 17:17
Airport Congonhas–Deputado Freitas Nobre Airport (SBSP)
Time Latitude Longitude Altitude Speed Heading
2026-05-08 16:17 -23.32938 -51.13800 1892 ft 0 kts 338°
2026-05-08 16:23 -23.32935 -51.13805 1892 ft 4 kts 311°
2026-05-08 16:23 -23.32931 -51.13874 1883 ft 13 kts 274°
2026-05-08 16:23 -23.32997 -51.13951 1894 ft 16 kts 198°
2026-05-08 16:23 -23.33054 -51.13922 1892 ft 8 kts 98°
2026-05-08 16:24 -23.33086 -51.13828 1891 ft 29 kts 110°
2026-05-08 16:24 -23.33264 -51.13298 1877 ft 118 kts 110°
2026-05-08 16:24 -23.33629 -51.12219 1984 ft 175 kts 110°
2026-05-08 16:24 -23.33911 -51.11380 2491 ft 181 kts 109°
2026-05-08 16:25 -23.34361 -51.10022 3189 ft 202 kts 107°
2026-05-08 16:25 -23.34862 -51.08514 3529 ft 223 kts 107°
2026-05-08 16:25 -23.35391 -51.06837 3805 ft 245 kts 101°
2026-05-08 16:25 -23.35307 -51.04961 4162 ft 258 kts 61°
2026-05-08 16:26 -23.34258 -51.03355 4663 ft 267 kts 40°
2026-05-08 16:26 -23.33005 -51.01830 5526 ft 272 kts 40°
2026-05-08 16:26 -23.31759 -51.00258 6469 ft 277 kts 45°
2026-05-08 16:26 -23.30670 -50.98502 7360 ft 284 kts 51°
2026-05-08 16:27 -23.29674 -50.96632 8203 ft 288 kts 54°
2026-05-08 16:27 -23.28702 -50.94707 9086 ft 292 kts 55°
2026-05-08 16:27 -23.27719 -50.92753 9932 ft 297 kts 55°
2026-05-08 16:27 -23.26679 -50.90728 10321 ft 319 kts 54°
2026-05-08 16:28 -23.25542 -50.88571 10748 ft 335 kts 54°
2026-05-08 16:28 -23.24360 -50.86346 11416 ft 343 kts 55°
2026-05-08 16:28 -23.23160 -50.84086 12148 ft 348 kts 55°
2026-05-08 16:28 -23.21940 -50.81799 12869 ft 353 kts 54°
2026-05-08 16:29 -23.20715 -50.79508 13530 ft 357 kts 55°
2026-05-08 16:29 -23.19455 -50.77154 14134 ft 363 kts 55°
2026-05-08 16:29 -23.18178 -50.74768 14733 ft 367 kts 54°
2026-05-08 16:29 -23.16886 -50.72360 15334 ft 371 kts 54°
2026-05-08 16:30 -23.15574 -50.69924 15924 ft 376 kts 54°
2026-05-08 16:30 -23.14247 -50.67461 16515 ft 380 kts 54°
2026-05-08 16:30 -23.12903 -50.64968 17087 ft 384 kts 54°
2026-05-08 16:30 -23.11544 -50.62450 17688 ft 388 kts 54°
2026-05-08 16:31 -23.10184 -50.59898 18261 ft 394 kts 57°
2026-05-08 16:31 -23.09250 -50.57057 18740 ft 408 kts 76°
2026-05-08 16:31 -23.09179 -50.53946 19210 ft 419 kts 96°
2026-05-08 16:31 -23.09720 -50.50812 19688 ft 425 kts 99°
2026-05-08 16:32 -23.10308 -50.47654 20159 ft 429 kts 99°
2026-05-08 16:32 -23.10909 -50.44469 20640 ft 433 kts 99°
2026-05-08 16:32 -23.11518 -50.41251 21066 ft 438 kts 99°
2026-05-08 16:32 -23.12131 -50.37994 21533 ft 442 kts 99°
2026-05-08 16:33 -23.12742 -50.34710 22003 ft 446 kts 99°
2026-05-08 16:33 -23.13353 -50.31393 22450 ft 450 kts 99°
2026-05-08 16:33 -23.13962 -50.28047 22911 ft 454 kts 99°
2026-05-08 16:33 -23.14575 -50.24665 23362 ft 458 kts 99°
2026-05-08 16:34 -23.15195 -50.21262 23757 ft 461 kts 99°
2026-05-08 16:34 -23.15824 -50.17833 24138 ft 464 kts 99°
2026-05-08 16:34 -23.16456 -50.14386 24542 ft 466 kts 99°
2026-05-08 16:34 -23.17091 -50.10926 24922 ft 469 kts 99°
2026-05-08 16:35 -23.17729 -50.07441 25301 ft 471 kts 99°
2026-05-08 16:35 -23.18369 -50.03941 25677 ft 474 kts 99°
2026-05-08 16:35 -23.19009 -50.00421 26062 ft 476 kts 99°
2026-05-08 16:35 -23.19651 -49.96871 26436 ft 480 kts 99°
2026-05-08 16:36 -23.20294 -49.93300 26874 ft 482 kts 99°
2026-05-08 16:36 -23.20948 -49.89713 27218 ft 485 kts 99°
2026-05-08 16:36 -23.21602 -49.86101 27604 ft 488 kts 99°
2026-05-08 16:36 -23.22248 -49.82511 27970 ft 493 kts 99°
2026-05-08 16:37 -23.22905 -49.78842 28392 ft 495 kts 99°
2026-05-08 16:37 -23.23564 -49.75159 28777 ft 500 kts 99°
2026-05-08 16:37 -23.24229 -49.71418 28905 ft 507 kts 99°
2026-05-08 16:37 -23.24914 -49.67623 28926 ft 515 kts 99°
2026-05-08 16:38 -23.26319 -49.59845 28929 ft 532 kts 99°
2026-05-08 16:38 -23.27748 -49.51891 28927 ft 538 kts 99°
2026-05-08 16:39 -23.29171 -49.43893 28937 ft 539 kts 99°
2026-05-08 16:39 -23.30596 -49.35872 28923 ft 541 kts 99°
2026-05-08 16:40 -23.32014 -49.27861 28913 ft 538 kts 98°
2026-05-08 16:40 -23.33420 -49.19890 28913 ft 537 kts 99°
2026-05-08 16:41 -23.34810 -49.11924 28906 ft 536 kts 98°
2026-05-08 16:42 -23.36911 -49.00010 28883 ft 531 kts 98°
2026-05-08 16:42 -23.38287 -48.92127 28898 ft 530 kts 98°
2026-05-08 16:43 -23.39666 -48.84187 28890 ft 535 kts 98°
2026-05-08 16:43 -23.41049 -48.76154 28941 ft 540 kts 98°
2026-05-08 16:44 -23.42417 -48.68158 28923 ft 535 kts 98°
2026-05-08 16:44 -23.43809 -48.60180 28927 ft 538 kts 99°
2026-05-08 16:45 -23.45198 -48.52209 28928 ft 535 kts 99°
2026-05-08 16:45 -23.46565 -48.44313 28882 ft 534 kts 98°
2026-05-08 16:45 -23.47241 -48.40323 28507 ft 538 kts 99°
2026-05-08 16:46 -23.47923 -48.36320 28262 ft 537 kts 98°
2026-05-08 16:46 -23.48601 -48.32347 27990 ft 528 kts 98°
2026-05-08 16:46 -23.49259 -48.28459 27733 ft 517 kts 98°
2026-05-08 16:46 -23.49910 -48.24615 27499 ft 514 kts 98°
2026-05-08 16:47 -23.50559 -48.20787 27252 ft 513 kts 99°
2026-05-08 16:47 -23.51201 -48.16966 26997 ft 512 kts 98°
2026-05-08 16:47 -23.51849 -48.13145 26741 ft 513 kts 98°
2026-05-08 16:47 -23.52493 -48.09325 26481 ft 512 kts 98°
2026-05-08 16:48 -23.53130 -48.05514 26230 ft 510 kts 98°
2026-05-08 16:48 -23.53768 -48.01703 25996 ft 513 kts 98°
2026-05-08 16:48 -23.54409 -47.97878 25743 ft 513 kts 99°
2026-05-08 16:48 -23.55056 -47.94062 25528 ft 512 kts 99°
2026-05-08 16:49 -23.55706 -47.90245 25305 ft 514 kts 99°
2026-05-08 16:49 -23.56359 -47.86405 25081 ft 515 kts 99°
2026-05-08 16:49 -23.57002 -47.82574 24853 ft 514 kts 98°
2026-05-08 16:49 -23.57632 -47.78737 24617 ft 514 kts 98°
2026-05-08 16:50 -23.58264 -47.74911 24386 ft 512 kts 99°
2026-05-08 16:50 -23.58890 -47.71100 23746 ft 510 kts 99°
2026-05-08 16:50 -23.59519 -47.67284 22999 ft 513 kts 99°
2026-05-08 16:50 -23.60155 -47.63464 22356 ft 510 kts 99°
2026-05-08 16:51 -23.60782 -47.59664 21725 ft 508 kts 98°
2026-05-08 16:51 -23.61404 -47.55878 21077 ft 507 kts 99°
2026-05-08 16:51 -23.62022 -47.52122 20510 ft 493 kts 99°
2026-05-08 16:51 -23.62620 -47.48551 19734 ft 468 kts 99°
2026-05-08 16:52 -23.63203 -47.45080 19054 ft 463 kts 98°
2026-05-08 16:52 -23.63774 -47.41617 18716 ft 466 kts 98°
2026-05-08 16:52 -23.64339 -47.38136 18116 ft 466 kts 98°
2026-05-08 16:52 -23.64909 -47.34669 17519 ft 462 kts 98°
2026-05-08 16:53 -23.66025 -47.27779 16406 ft 466 kts 98°
2026-05-08 16:53 -23.66592 -47.24289 15853 ft 466 kts 97°
2026-05-08 16:53 -23.67141 -47.20937 15537 ft 432 kts 97°
2026-05-08 16:54 -23.67657 -47.17818 15120 ft 404 kts 97°
2026-05-08 16:54 -23.68138 -47.14839 14418 ft 398 kts 97°
2026-05-08 16:54 -23.68618 -47.11861 13874 ft 398 kts 97°
2026-05-08 16:54 -23.69095 -47.08903 13375 ft 393 kts 97°
2026-05-08 16:55 -23.69569 -47.05983 12891 ft 389 kts 97°
2026-05-08 16:55 -23.70031 -47.03164 12726 ft 364 kts 97°
2026-05-08 16:55 -23.70468 -47.00507 12244 ft 350 kts 97°
2026-05-08 16:55 -23.70883 -46.97917 11568 ft 345 kts 97°
2026-05-08 16:56 -23.71292 -46.95324 11081 ft 347 kts 97°
2026-05-08 16:56 -23.71699 -46.92739 10678 ft 346 kts 97°
2026-05-08 16:56 -23.72113 -46.90173 10408 ft 340 kts 97°
2026-05-08 16:56 -23.72526 -46.87634 9948 ft 339 kts 97°
2026-05-08 16:57 -23.72928 -46.85134 9483 ft 328 kts 97°
2026-05-08 16:57 -23.73314 -46.82716 8917 ft 319 kts 97°
2026-05-08 16:57 -23.73691 -46.80358 8368 ft 312 kts 96°
2026-05-08 16:57 -23.74061 -46.78055 7923 ft 304 kts 96°
2026-05-08 16:58 -23.74422 -46.75821 7476 ft 295 kts 95°
2026-05-08 16:58 -23.74777 -46.73617 7028 ft 297 kts 94°
2026-05-08 16:58 -23.75131 -46.71385 6591 ft 300 kts 94°
2026-05-08 16:58 -23.75482 -46.69194 6500 ft 284 kts 94°
2026-05-08 16:59 -23.75815 -46.67152 6395 ft 265 kts 93°
2026-05-08 16:59 -23.76125 -46.65226 6264 ft 251 kts 92°
2026-05-08 16:59 -23.76419 -46.63405 6121 ft 237 kts 92°
2026-05-08 16:59 -23.76694 -46.61656 5838 ft 230 kts 89°
2026-05-08 17:00 -23.76542 -46.59984 5324 ft 218 kts 56°
2026-05-08 17:00 -23.75638 -46.58789 5089 ft 193 kts 25°
2026-05-08 17:00 -23.74492 -46.58290 4979 ft 164 kts
2026-05-08 17:00 -23.73443 -46.58343 4858 ft 144 kts 343°
2026-05-08 17:01 -23.72560 -46.58791 4718 ft 139 kts 329°
2026-05-08 17:01 -23.71749 -46.59355 4585 ft 138 kts 329°
2026-05-08 17:01 -23.70943 -46.59914 4400 ft 136 kts 329°
2026-05-08 17:01 -23.70144 -46.60468 4212 ft 137 kts 329°
2026-05-08 17:02 -23.69348 -46.61019 4037 ft 135 kts 330°
2026-05-08 17:02 -23.68552 -46.61570 3859 ft 135 kts 329°
2026-05-08 17:02 -23.67774 -46.62109 3698 ft 134 kts 326°
2026-05-08 17:02 -23.66990 -46.62654 3538 ft 133 kts 325°
2026-05-08 17:03 -23.66199 -46.63209 3330 ft 137 kts 328°
2026-05-08 17:03 -23.65406 -46.63752 3128 ft 135 kts 329°
2026-05-08 17:03 -23.64617 -46.64298 2934 ft 135 kts 330°
2026-05-08 17:03 -23.63835 -46.64842 2756 ft 133 kts 330°
2026-05-08 17:04 -23.63059 -46.65374 2621 ft 120 kts 328°
2026-05-08 17:04 -23.62328 -46.65882 2845 ft 142 kts 328°
2026-05-08 17:04 -23.61724 -46.66727 3907 ft 146 kts 283°
2026-05-08 17:04 -23.61899 -46.67940 4761 ft 177 kts 263°
2026-05-08 17:05 -23.62496 -46.69171 4713 ft 199 kts 235°
2026-05-08 17:05 -23.63788 -46.69947 4148 ft 231 kts 195°
2026-05-08 17:05 -23.65378 -46.69817 3997 ft 230 kts 166°
2026-05-08 17:05 -23.66844 -46.69080 4001 ft 228 kts 150°
2026-05-08 17:06 -23.68177 -46.68200 4000 ft 224 kts 148°
2026-05-08 17:06 -23.69450 -46.67332 4012 ft 211 kts 147°
2026-05-08 17:06 -23.70626 -46.66528 4024 ft 190 kts 148°
2026-05-08 17:06 -23.71686 -46.65731 4015 ft 183 kts 130°
2026-05-08 17:07 -23.72218 -46.64555 4011 ft 169 kts 95°
2026-05-08 17:07 -23.72277 -46.63340 4006 ft 156 kts 73°
2026-05-08 17:07 -23.72019 -46.62224 4007 ft 146 kts 50°
2026-05-08 17:07 -23.71406 -46.61419 4016 ft 133 kts 26°
2026-05-08 17:08 -23.70603 -46.60999 4018 ft 127 kts
2026-05-08 17:08 -23.69714 -46.60967 3980 ft 130 kts 347°
2026-05-08 17:08 -23.68875 -46.61347 3889 ft 133 kts 327°
2026-05-08 17:08 -23.68090 -46.61891 3739 ft 134 kts 325°
2026-05-08 17:09 -23.67302 -46.62439 3574 ft 135 kts 326°
2026-05-08 17:09 -23.66518 -46.62992 3450 ft 133 kts 328°
2026-05-08 17:09 -23.65735 -46.63531 3236 ft 133 kts 330°
2026-05-08 17:09 -23.64948 -46.64069 3056 ft 135 kts 330°
2026-05-08 17:10 -23.64149 -46.64622 2835 ft 135 kts 329°
2026-05-08 17:10 -23.63347 -46.65175 2625 ft 134 kts 328°
2026-05-08 17:10 -23.62648 -46.65661 2673 ft 115 kts 327°
2026-05-08 17:10 -23.61871 -46.66231 3193 ft 150 kts 323°
2026-05-08 17:11 -23.61327 -46.67287 3969 ft 180 kts 287°
2026-05-08 17:11 -23.61480 -46.68757 4008 ft 208 kts 252°
2026-05-08 17:11 -23.62471 -46.69938 4004 ft 222 kts 218°
2026-05-08 17:11 -23.64004 -46.70337 4010 ft 235 kts 180°
2026-05-08 17:12 -23.65566 -46.69808 4014 ft 237 kts 153°
2026-05-08 17:12 -23.67006 -46.68914 4012 ft 240 kts 148°
2026-05-08 17:12 -23.68426 -46.67972 4022 ft 237 kts 148°
2026-05-08 17:12 -23.69789 -46.67062 4015 ft 220 kts 148°
2026-05-08 17:13 -23.71041 -46.66226 4004 ft 204 kts 148°
2026-05-08 17:13 -23.72118 -46.65261 4013 ft 201 kts 121°
2026-05-08 17:13 -23.72695 -46.63929 4012 ft 192 kts 88°
2026-05-08 17:13 -23.72633 -46.62522 4002 ft 183 kts 69°
2026-05-08 17:14 -23.72135 -46.61387 4031 ft 151 kts 37°
2026-05-08 17:14 -23.71349 -46.60765 4013 ft 133 kts 11°
2026-05-08 17:14 -23.70473 -46.60596 4016 ft 126 kts 349°
2026-05-08 17:14 -23.69889 -46.60717 4005 ft 128 kts 337°
2026-05-08 17:15 -23.69106 -46.61188 3918 ft 133 kts 326°
2026-05-08 17:15 -23.68321 -46.61731 3794 ft 133 kts 326°
2026-05-08 17:15 -23.67538 -46.62274 3631 ft 134 kts 326°
2026-05-08 17:15 -23.66757 -46.62815 3467 ft 132 kts 328°
2026-05-08 17:16 -23.65983 -46.63361 3268 ft 132 kts 329°
2026-05-08 17:16 -23.65187 -46.63915 3101 ft 137 kts 329°
2026-05-08 17:16 -23.64384 -46.64460 2902 ft 135 kts 330°
2026-05-08 17:16 -23.63597 -46.65007 2690 ft 135 kts 329°
2026-05-08 17:17 -23.62851 -46.65519 2608 ft 111 kts 327°
2026-05-08 17:17 -23.62446 -46.65800 2604 ft 40 kts 327°
2026-05-08 17:17 -23.62245 -46.65938 2600 ft 20 kts 327°
2026-05-08 17:17 -23.62196 -46.66009 2599 ft 13 kts 258°
2026-05-08 17:18 -23.62265 -46.66044 2600 ft 11 kts 178°
2026-05-08 17:18 -23.62336 -46.66028 2600 ft 14 kts 156°
2026-05-08 17:18 -23.62434 -46.65964 2600 ft 16 kts 149°
2026-05-08 17:18 -23.62505 -46.65915 2601 ft 8 kts 148°
2026-05-08 17:19 -23.62534 -46.65936 2601 ft 2 kts 242°
2026-05-08 17:19 -23.62539 -46.65945 2601 ft 1 kts 238°
2026-05-08 17:19 -23.62540 -46.65947 2600 ft 0 kts 238°